• In Hungary
  • List of Countries
  • For 7 days
  • Water Temperature
  • Satellite Maps
  • Weather Map
  • News
  • Weather Widgets
  • user-avatar
    Login

    Hourly Weather Janikowo

    Today, 15 November, Thursday

    Time Temperature Precipitation Wind Pressure Humidity
    00:00 +6°C° 0 mm 2 mps 762 mmHg 93%
    01:00 +6°C° 0 mm 2 mps 762 mmHg 94%
    02:00 +5°C° 0 mm 2 mps 763 mmHg 94%
    03:00 +5°C° 0 mm 2 mps 763 mmHg 94%
    04:00 +6°C° 0 mm 1 mps 763 mmHg 94%
    05:00 +6°C° 0 mm 1 mps 763 mmHg 94%
    06:00 +6°C° 0 mm 1 mps 763 mmHg 94%
    07:00 +7°C° 0 mm 1 mps 764 mmHg 92%
    08:00 +7°C° 0 mm 1 mps 764 mmHg 89%
    09:00 +8°C° 0 mm 1 mps 764 mmHg 85%
    10:00 +8°C° 0 mm 1 mps 764 mmHg 82%
    11:00 +8°C° 0 mm 2 mps 764 mmHg 78%
    12:00 +9°C° 0 mm 2 mps 764 mmHg 73%
    13:00 +9°C° 0 mm 2 mps 764 mmHg 69%
    14:00 +8°C° 0 mm 2 mps 764 mmHg 71%
    15:00 +8°C° 0 mm 2 mps 765 mmHg 73%
    16:00 +7°C° 0 mm 2 mps 765 mmHg 74%
    17:00 +7°C° 0 mm 2 mps 765 mmHg 76%
    18:00 +6°C° 0 mm 2 mps 765 mmHg 79%
    19:00 +6°C° 0 mm 2 mps 765 mmHg 81%
    20:00 +5°C° 0 mm 2 mps 766 mmHg 83%
    21:00 +4°C° 0 mm 3 mps 766 mmHg 86%
    22:00 +3°C° 0 mm 3 mps 766 mmHg 88%
    23:00 +3°C° 0 mm 3 mps 767 mmHg 88%

    Tomorrow, 16 November, Friday

    Time Temperature Precipitation Wind Pressure Humidity
    00:00 +3°C° 0 mm 3 mps 767 mmHg 88%
    01:00 +2°C° 0 mm 3 mps 767 mmHg 88%
    02:00 +2°C° 0 mm 3 mps 767 mmHg 87%
    03:00 +2°C° 0 mm 3 mps 767 mmHg 86%
    04:00 +1°C° 0 mm 3 mps 768 mmHg 85%
    05:00 +1°C° 0 mm 3 mps 768 mmHg 85%
    06:00 +1°C° 0 mm 3 mps 768 mmHg 85%
    07:00 +1°C° 0 mm 3 mps 768 mmHg 85%
    08:00 +1°C° 0 mm 3 mps 769 mmHg 81%
    09:00 +1°C° 0 mm 4 mps 769 mmHg 78%
    10:00 +3°C° 0 mm 4 mps 769 mmHg 74%
    11:00 +3°C° 0 mm 4 mps 769 mmHg 72%
    12:00 +4°C° 0 mm 4 mps 769 mmHg 71%
    13:00 +4°C° 0 mm 4 mps 769 mmHg 69%
    14:00 +4°C° 0 mm 3 mps 769 mmHg 73%
    15:00 +3°C° 0 mm 3 mps 769 mmHg 76%
    16:00 +2°C° 0 mm 3 mps 769 mmHg 79%
    17:00 +2°C° 0 mm 3 mps 770 mmHg 80%
    18:00 +2°C° 0 mm 3 mps 770 mmHg 82%
    19:00 +1°C° 0 mm 3 mps 770 mmHg 83%
    20:00 +1°C° 0 mm 3 mps 770 mmHg 84%
    21:00 +1°C° 0 mm 3 mps 770 mmHg 85%
    22:00 +1°C° 0 mm 3 mps 770 mmHg 86%
    23:00 0°C° 0 mm 3 mps 770 mmHg 86%

    Day after tomorrow, 17 November, Saturday

    Time Temperature Precipitation Wind Pressure Humidity
    00:00 0°C° 0 mm 3 mps 770 mmHg 87%
    01:00 +1°C° 0 mm 2 mps 770 mmHg 87%
    02:00 +1°C° 0 mm 2 mps 770 mmHg 87%
    03:00 -1°C° 0 mm 2 mps 770 mmHg 86%
    04:00 -1°C° 0 mm 2 mps 770 mmHg 86%
    05:00 -1°C° 0 mm 2 mps 770 mmHg 84%
    06:00 -1°C° 0 mm 2 mps 770 mmHg 82%
    07:00 -2°C° 0 mm 2 mps 770 mmHg 81%
    08:00 +1°C° 0 mm 2 mps 770 mmHg 73%
    09:00 +2°C° 0 mm 2 mps 770 mmHg 65%
    10:00 +2°C° 0 mm 3 mps 770 mmHg 58%
    11:00 +3°C° 0 mm 2 mps 770 mmHg 54%
    12:00 +4°C° 0 mm 2 mps 770 mmHg 50%
    13:00 +5°C° 0 mm 2 mps 769 mmHg 46%
    14:00 +4°C° 0 mm 2 mps 769 mmHg 49%
    15:00 +3°C° 0 mm 2 mps 769 mmHg 52%
    16:00 +3°C° 0 mm 2 mps 769 mmHg 55%
    17:00 +2°C° 0 mm 2 mps 768 mmHg 55%
    18:00 +3°C° 0 mm 1 mps 768 mmHg 56%
    19:00 +3°C° 0 mm 1 mps 768 mmHg 57%
    20:00 +3°C° 0 mm 1 mps 768 mmHg 58%
    21:00 +2°C° 0 mm 1 mps 768 mmHg 58%
    22:00 +1°C° 0 mm 0 mps 767 mmHg 59%
    23:00 +1°C° 0 mm 0 mps 767 mmHg 59%

    18 November, Sunday

    Time Temperature Precipitation Wind Pressure Humidity
    00:00 +2°C° 0 mm 1 mps 766 mmHg 59%
    01:00 +2°C° 0 mm 1 mps 766 mmHg 60%
    02:00 +1°C° 0 mm 1 mps 765 mmHg 61%
    03:00 -1°C° 0 mm 2 mps 765 mmHg 63%
    04:00 -1°C° 0 mm 2 mps 764 mmHg 65%
    05:00 -1°C° 0 mm 2 mps 764 mmHg 68%
    06:00 -1°C° 0 mm 2 mps 763 mmHg 71%
    07:00 -1°C° 0 mm 2 mps 762 mmHg 74%
    08:00 0°C° 0 mm 3 mps 762 mmHg 75%
    09:00 +1°C° 0 mm 3 mps 761 mmHg 76%
    10:00 +2°C° 0 mm 3 mps 761 mmHg 77%
    11:00 +2°C° 0 mm 3 mps 760 mmHg 80%
    12:00 +2°C° 0 mm 3 mps 760 mmHg 84%
    13:00 +3°C° 0 mm 3 mps 759 mmHg 87%
    14:00 +3°C° 0.1 mm 3 mps 759 mmHg 88%
    15:00 +2°C° 0.1 mm 3 mps 758 mmHg 90%
    16:00 +2°C° 0.1 mm 3 mps 758 mmHg 92%
    17:00 +2°C° 0.1 mm 3 mps 758 mmHg 90%
    18:00 +1°C° 0.1 mm 4 mps 757 mmHg 89%
    19:00 +1°C° 0.1 mm 4 mps 757 mmHg 87%
    20:00 +1°C° 0.1 mm 4 mps 757 mmHg 86%
    21:00 +1°C° 0.1 mm 5 mps 757 mmHg 85%
    22:00 +1°C° 0.1 mm 5 mps 757 mmHg 85%
    23:00 +1°C° 0 mm 5 mps 757 mmHg 85%

    19 November, Monday

    Time Temperature Precipitation Wind Pressure Humidity
    00:00 +1°C° 0 mm 5 mps 756 mmHg 85%
    01:00 0°C° 0 mm 5 mps 756 mmHg 85%
    02:00 0°C° 0.1 mm 4 mps 756 mmHg 86%
    03:00 0°C° 0.1 mm 4 mps 755 mmHg 87%
    04:00 0°C° 0.1 mm 4 mps 755 mmHg 88%
    05:00 0°C° 0.1 mm 4 mps 755 mmHg 88%
    06:00 0°C° 0.1 mm 4 mps 755 mmHg 89%
    07:00 +2°C° 0.1 mm 3 mps 755 mmHg 90%
    08:00 +1°C° 0.1 mm 4 mps 755 mmHg 88%
    09:00 +1°C° 0.1 mm 4 mps 755 mmHg 86%
    10:00 +3°C° 0.1 mm 4 mps 755 mmHg 84%
    11:00 +3°C° 0.2 mm 4 mps 755 mmHg 82%
    12:00 +3°C° 0.2 mm 4 mps 754 mmHg 80%
    13:00 +4°C° 0.2 mm 4 mps 754 mmHg 78%
    14:00 +3°C° 0.1 mm 4 mps 754 mmHg 79%
    15:00 +3°C° 0.1 mm 4 mps 754 mmHg 79%
    16:00 +1°C° 0.1 mm 4 mps 754 mmHg 80%
    17:00 +1°C° 0.1 mm 4 mps 754 mmHg 80%
    18:00 +1°C° 0.1 mm 4 mps 754 mmHg 81%
    19:00 0°C° 0.1 mm 4 mps 754 mmHg 81%
    20:00 0°C° 0.1 mm 4 mps 754 mmHg 80%
    21:00 0°C° 0.1 mm 4 mps 755 mmHg 80%
    22:00 0°C° 0.1 mm 4 mps 755 mmHg 79%
    23:00 0°C° 0.1 mm 5 mps 755 mmHg 78%

    20 November, Tuesday

    Time Temperature Precipitation Wind Pressure Humidity
    00:00 -1°C° 0.1 mm 5 mps 755 mmHg 77%
    01:00 -1°C° 0.1 mm 5 mps 754 mmHg 75%
    02:00 -1°C° 0.1 mm 5 mps 754 mmHg 78%
    03:00 -1°C° 0.1 mm 5 mps 754 mmHg 80%
    04:00 -2°C° 0.1 mm 5 mps 754 mmHg 82%
    05:00 -2°C° 0.1 mm 5 mps 754 mmHg 83%
    06:00 -2°C° 0.1 mm 5 mps 753 mmHg 84%
    07:00 -2°C° 0.1 mm 5 mps 753 mmHg 85%
    08:00 -2°C° 0 mm 5 mps 753 mmHg 84%
    09:00 -1°C° 0 mm 5 mps 753 mmHg 83%
    10:00 -1°C° 0 mm 5 mps 753 mmHg 82%
    11:00 -1°C° 0 mm 5 mps 753 mmHg 81%
    12:00 0°C° 0 mm 5 mps 752 mmHg 80%
    13:00 0°C° 0 mm 5 mps 752 mmHg 78%
    14:00 0°C° 0.1 mm 5 mps 751 mmHg 80%
    15:00 0°C° 0.1 mm 5 mps 751 mmHg 82%
    16:00 0°C° 0.1 mm 5 mps 750 mmHg 84%
    17:00 -1°C° 0.2 mm 6 mps 749 mmHg 85%
    18:00 -1°C° 0.2 mm 6 mps 749 mmHg 86%
    19:00 -1°C° 0.2 mm 7 mps 748 mmHg 87%
    20:00 -1°C° 0.5 mm 7 mps 747 mmHg 87%
    21:00 0°C° 0.5 mm 7 mps 747 mmHg 87%
    22:00 0°C° 0.5 mm 7 mps 746 mmHg 87%
    23:00 0°C° 0.8 mm 7 mps 745 mmHg 87%
    Show more